Theta_e
328 335 334 333 333 333 335 335 334 331 331 330 330 330 329 329 329 330 331 319 327 335 337 337 336 335 333 331 329 329 328 328 328 327 327 326 325 325 325 326 325 325 326
325 333 333 332 331 331 332 332 331 331 331 330 329 328 328 329 328 328 330 329 324 329 335 336 336 335 333 332 331 330 330 330 330 330 329 328 327 326 326 326 326 327 327
321 328 332 331 329 329 330 330 329 330 328 328 326 327 327 327 328 328 329 330 329 322 328 331 332 334 332 332 331 331 330 332 331 330 329 330 330 330 329 329 328 327 328
318 325 329 330 330 330 330 328 326 325 325 326 325 325 327 327 326 327 327 328 327 326 323 328 330 330 330 330 330 330 331 329 327 326 324 324 324 323 323 323 323 323 323
316 322 328 330 331 329 327 327 325 325 322 323 323 324 325 326 325 325 325 323 320 317 316 317 318 323 329 330 330 329 327 324 323 321 320 319 319 319 318 319 319 320 320
314 319 324 329 328 327 325 325 324 324 323 321 320 319 318 317 317 315 313 310 307 307 306 307 311 313 318 322 323 323 322 319 316 314 314 313 313 313 314 314 315 316 316
315 316 320 326 326 325 324 325 324 321 319 321 317 310 305 303 301 303 302 300 299 298 297 297 298 297 302 310 312 314 314 313 311 310 309 310 310 310 310 310 310 311 311
319 318 324 325 326 324 323 323 322 320 317 320 316 313 303 302 298 296 297 295 293 294 292 292 291 291 291 294 300 305 306 307 307 306 305 305 306 306 306 306 306 306 307
310 322 326 326 325 325 322 322 323 321 317 319 318 314 307 302 294 293 292 291 290 288 287 288 287 287 287 289 291 293 297 298 299 299 300 300 300 301 301 302 303 303 304
303 308 326 325 324 324 322 322 323 321 319 314 313 312 311 304 297 290 290 287 287 286 285 285 285 285 285 284 286 289 291 292 292 292 293 295 295 296 297 298 299 300 300
297 299 307 318 312 308 303 316 317 318 317 315 310 306 305 305 303 296 287 285 284 284 284 283 282 283 283 282 282 284 286 288 289 289 290 290 291 293 294 295 297 297 298
292 293 295 297 298 295 294 291 291 290 291 291 290 289 294 299 297 297 290 287 283 280 281 281 281 281 281 281 281 280 282 285 286 287 287 287 288 290 291 293 294 295 295
287 289 290 291 289 289 288 287 286 285 285 284 284 283 283 283 288 292 293 287 285 282 280 279 279 279 279 280 279 277 278 282 283 284 284 285 286 287 288 290 291 292 292
285 286 290 286 291 287 285 285 283 283 283 281 280 280 280 279 280 283 288 288 285 285 282 278 277 277 277 278 278 276 274 278 280 282 283 283 284 286 286 288 288 289 290
284 284 283 283 283 283 282 281 280 279 279 278 277 277 277 277 277 278 278 280 287 284 280 277 276 276 276 276 276 274 273 276 277 279 280 281 283 284 285 285 286 287 288
281 281 281 280 280 280 279 279 278 277 276 276 276 275 275 275 276 276 276 276 277 283 276 278 274 275 275 274 274 273 272 274 274 276 278 279 281 282 282 283 284 285 285
279 278 277 277 278 278 277 277 276 276 276 275 275 274 274 274 273 274 275 274 274 276 275 274 275 274 274 272 272 272 272 272 272 274 276 279 280 280 280 281 282 283 283
277 276 276 276 276 276 276 276 275 275 275 274 274 274 273 274 272 273 273 272 272 272 273 271 272 272 272 271 270 270 270 271 271 273 276 277 277 278 279 280 280 281 282
275 275 276 275 275 275 275 275 275 275 275 274 273 272 271 272 271 271 271 271 271 271 271 270 270 271 271 270 269 269 269 269 270 272 274 274 275 276 277 279 279 279 279
274 274 274 273 273 274 274 274 274 273 273 274 274 274 273 272 271 271 271 271 271 270 270 269 268 268 268 269 268 267 266 268 268 270 271 272 274 274 275 276 276 276 276
276 276 275 275 274 273 273 272 272 272 272 272 273 274 275 276 276 275 272 270 270 270 269 268 267 267 267 266 265 266 266 267 268 269 269 269 269 270 270 272 272 273 275
275 275 275 275 275 276 277 276 273 272 272 272 271 272 272 272 274 275 274 274 272 270 268 268 267 265 265 266 266 266 266 266 264 269 267 266 269 267 268 269 272 274 276
275 275 274 274 274 275 277 275 274 271 270 270 270 271 272 272 271 270 272 271 270 271 271 269 266 266 265 266 266 266 266 265 265 267 266 264 267 267 269 269 273 274 275
274 274 274 275 275 276 276 275 272 269 268 268 269 270 270 271 273 270 269 268 267 268 268 269 268 268 268 269 269 268 267 266 265 265 265 262 267 266 268 269 272 274 275
273 273 273 274 274 274 276 275 272 270 268 268 268 269 270 271 274 275 269 267 267 267 270 272 272 272 271 271 270 267 263 261 260 264 265 264 266 265 267 267 269 272 273
272 272 272 272 272 275 277 275 272 270 268 268 268 268 270 272 274 274 269 267 265 267 267 266 264 264 264 263 267 264 263 260 259 260 267 263 264 264 262 268 268 268 267
Wind_Speed
4 3 6 8 8 5 9 9 8 10 10 10 9 10 10 9 9 5 5 9 10 10 15 16 15 14 14 13 12 11 10 10 11 11 11 12 12 12 12 12 11 11 12
4 5 5 9 7 7 6 7 9 9 9 9 10 10 10 9 8 7 5 6 9 9 10 12 15 14 11 12 12 11 11 11 13 14 13 14 13 13 13 13 12 12 14
5 5 6 9 10 8 10 6 8 8 8 8 9 8 8 9 8 9 6 5 6 1 7 3 4 10 6 7 5 2 4 15 20 18 17 15 1 13 10 11 15 6 15
5 4 3 8 9 12 11 9 8 6 7 9 7 6 6 7 9 9 7 3 2 6 10 13 12 12 10 10 9 8 12 13 15 14 13 14 13 12 13 13 12 12 12
7 5 6 6 10 8 9 8 7 9 6 6 6 6 6 6 7 5 4 7 9 9 8 18 20 17 16 18 17 19 18 18 17 15 15 16 13 13 12 12 11 11 11
8 7 4 9 10 8 7 7 7 7 8 8 4 3 6 6 6 7 8 8 9 10 8 10 10 12 20 21 21 21 21 20 18 17 16 15 13 12 11 11 11 11 12
7 8 5 7 9 8 9 11 9 10 4 9 7 8 8 9 10 8 8 8 10 10 11 10 7 7 10 23 22 20 19 18 17 16 16 14 13 13 12 11 11 12 13
7 8 8 8 10 7 10 11 11 8 4 7 4 7 5 3 8 9 7 9 11 8 11 12 12 12 10 8 16 21 20 18 17 16 14 12 14 14 13 13 12 11 13
7 10 11 9 11 10 10 11 11 12 8 12 11 4 5 4 4 5 10 8 10 7 8 11 12 12 10 10 12 14 19 18 17 16 14 14 14 15 15 14 15 15 15
8 10 11 10 10 8 10 10 8 9 9 9 5 4 5 6 5 5 5 4 8 9 11 6 9 10 11 9 15 18 18 17 16 15 13 13 14 14 14 15 15 16 17
9 10 9 3 5 5 7 2 3 7 5 8 5 4 4 3 7 5 5 4 5 8 6 8 6 8 9 8 7 12 14 13 14 12 12 14 15 15 15 15 17 18 19
7 12 11 8 9 9 9 9 10 15 12 10 8 8 3 3 3 4 5 5 7 5 6 6 6 7 6 7 9 11 15 13 14 13 13 14 14 14 16 17 18 19 21
6 11 12 9 9 11 12 13 13 15 12 11 11 8 8 7 3 2 7 5 5 4 4 6 6 5 5 4 7 13 14 14 14 12 13 14 15 15 16 18 19 20 21
7 11 11 11 7 16 15 14 13 11 14 14 16 12 9 9 8 5 4 6 5 3 3 4 2 3 4 5 8 11 7 13 14 12 15 16 16 17 19 20 20 20 21
8 12 14 11 11 18 17 16 13 14 14 13 13 13 11 9 9 7 9 4 3 4 3 2 3 5 4 4 8 6 8 13 13 14 16 16 17 19 20 19 19 21 22
13 15 18 15 13 19 18 16 13 15 16 13 10 14 11 9 10 9 8 6 5 3 5 2 3 3 3 4 6 7 8 11 12 15 16 16 18 19 19 19 20 22 23
15 17 19 18 9 17 19 18 17 16 18 16 14 13 13 11 9 8 8 8 9 6 7 3 2 2 2 6 6 7 6 7 8 15 18 20 21 20 19 21 22 24 26
18 19 17 13 20 15 16 18 18 14 16 16 13 13 13 10 13 9 8 10 9 9 4 6 2 3 1 4 7 8 7 7 9 14 21 20 19 20 22 23 24 28 30
17 19 15 15 15 14 17 16 16 15 16 14 12 14 12 11 11 9 9 8 8 7 7 4 2 2 1 3 9 7 9 9 8 17 20 19 20 21 24 27 29 30 30
17 17 13 15 16 15 14 14 13 14 15 12 12 13 13 11 10 10 9 9 8 7 6 5 3 2 2 4 7 9 10 9 11 11 14 16 21 24 28 28 27 30 30
16 15 13 14 13 13 9 11 12 13 12 12 11 12 12 14 22 15 7 7 7 6 4 4 3 3 4 8 8 7 10 11 11 10 9 8 11 11 13 19 23 28 29
14 10 13 14 14 10 20 19 12 10 11 11 11 10 9 10 15 18 15 14 10 7 6 3 2 5 9 8 8 9 10 10 9 1 12 13 10 12 11 11 22 29 33
11 11 11 12 13 11 20 21 19 11 12 12 10 8 8 7 8 7 12 11 8 7 3 2 4 6 9 9 11 12 12 11 12 11 14 15 10 12 10 11 26 31 33
9 8 10 10 11 11 19 19 18 12 11 11 9 8 8 7 5 5 5 4 4 4 6 5 6 8 9 11 11 11 13 13 12 11 11 13 9 13 10 11 29 31 30
8 8 8 10 11 10 15 15 11 9 9 9 7 7 7 8 7 7 1 4 6 6 7 11 12 16 19 19 16 9 8 9 10 8 7 10 10 16 11 12 11 22 22
9 7 9 8 9 6 13 12 9 5 7 5 5 5 7 8 9 9 2 3 6 8 5 6 8 11 12 11 15 7 7 8 9 8 3 7 11 11 10 7 7 10 12
Wind_Direction
319 188 201 196 191 178 207 191 179 177 175 176 175 179 177 179 181 185 190 199 209 222 191 187 194 194 190 193 203 215 225 229 233 234 235 235 237 241 242 244 251 259 262
268 268 184 190 188 191 195 195 184 180 177 176 181 182 184 185 187 189 194 198 209 229 226 206 202 198 193 195 204 217 232 239 241 233 228 237 240 244 251 255 256 265 268
289 282 182 179 171 191 209 198 198 185 181 175 179 180 181 188 197 198 198 202 203 202 34 306 223 220 221 224 230 215 131 89 78 72 67 61 314 261 287 280 264 321 6
245 273 209 181 187 195 197 183 184 187 191 184 172 181 183 185 198 204 206 195 85 105 62 76 93 108 108 108 108 115 110 89 78 74 66 65 56 44 37 33 16 1 359
248 228 245 184 175 177 175 182 185 178 179 187 173 169 184 190 195 188 168 97 93 98 94 79 73 72 87 92 94 91 88 81 76 72 67 63 56 47 39 31 15 2 353
252 239 245 202 184 179 175 181 184 198 189 165 125 68 38 51 55 61 88 83 79 79 76 74 76 70 75 79 82 83 81 75 68 62 57 52 43 36 30 24 13 1 354
241 239 204 206 179 177 180 188 187 162 163 147 131 103 61 45 44 48 58 67 69 70 71 60 62 59 57 74 71 70 70 69 66 52 49 42 36 26 19 10 6 351 341
243 234 216 209 195 176 175 181 182 163 136 165 146 143 146 122 57 35 48 64 62 61 73 67 64 62 57 47 63 59 57 54 48 47 39 38 30 16 4 354 350 341 331
319 249 229 199 194 188 185 185 191 188 176 174 167 165 148 145 111 33 46 59 63 62 65 70 71 60 62 63 56 48 50 47 41 36 28 25 18 8 351 345 341 336 327
339 332 215 185 181 178 183 186 191 191 169 159 120 107 73 128 145 131 52 44 59 60 53 63 62 77 57 57 49 44 39 38 35 27 22 16 7 353 348 347 333 330 324
9 4 10 96 97 63 54 80 149 172 167 146 122 119 63 74 116 141 140 125 76 51 67 60 54 74 63 65 51 43 35 27 29 23 18 9 358 347 342 336 332 324 319
13 20 28 48 80 75 77 71 67 56 53 51 66 59 91 132 145 132 116 140 123 71 59 60 52 59 64 60 56 35 24 18 19 13 10 357 347 342 335 331 325 322 319
24 26 37 32 74 75 76 76 69 71 61 69 65 66 70 64 40 45 124 129 124 154 114 63 53 61 66 80 48 30 11 9 4 2 356 349 342 334 330 325 323 321 316
47 46 48 45 71 82 75 79 76 72 75 72 66 73 65 62 52 26 102 123 104 111 93 125 77 65 63 48 42 19 3 353 351 352 348 344 336 330 327 325 322 318 313
54 64 60 49 28 87 80 78 80 73 75 73 70 66 68 58 62 54 59 36 89 143 113 101 129 58 65 43 27 5 353 344 341 344 340 335 329 326 324 320 317 316 312
59 61 65 62 40 72 79 79 80 84 80 71 67 73 67 66 64 56 55 53 43 80 123 93 94 100 73 21 19 355 341 334 330 329 326 323 321 320 318 316 314 312 308
64 66 62 60 53 65 72 76 73 78 83 81 71 74 74 69 67 57 54 52 53 39 104 105 94 88 117 12 354 340 333 326 325 323 322 323 322 316 314 311 311 306 305
59 65 66 70 63 54 73 75 76 70 77 79 80 76 67 60 61 56 59 60 61 47 87 95 78 7 303 346 336 329 332 328 325 313 314 320 311 307 308 308 304 304 301
69 65 68 78 83 76 69 70 76 78 73 73 77 76 77 78 73 67 62 65 65 70 70 103 85 360 322 334 333 331 329 322 316 312 311 307 299 301 301 301 303 299 295
78 73 65 67 68 74 72 78 80 81 83 75 70 78 77 79 81 73 66 63 59 63 59 61 43 3 310 322 327 329 325 321 315 299 293 287 286 292 292 296 294 289 294
69 72 76 76 75 67 64 76 83 86 88 87 72 70 69 74 73 72 66 60 61 61 57 51 26 333 330 328 333 319 303 306 308 292 295 285 293 285 280 279 280 289 288
67 76 79 83 85 88 100 101 100 97 92 87 73 68 73 63 66 65 59 56 49 38 32 5 5 327 294 298 303 309 309 316 322 91 309 296 296 277 267 271 280 283 288
85 80 82 84 89 92 83 80 75 69 69 70 69 64 64 57 66 65 47 44 35 9 307 233 273 279 290 306 307 308 306 304 293 300 304 291 301 275 271 273 280 283 284
67 74 73 73 78 74 75 76 75 73 71 69 63 52 43 29 66 69 48 12 348 295 261 252 254 281 289 296 301 311 308 296 292 290 277 280 299 279 291 279 275 281 277
72 66 63 70 77 73 72 72 75 74 73 68 61 42 24 2 354 21 7 302 300 302 280 271 296 308 308 310 311 308 303 316 311 316 284 275 310 306 291 272 258 264 277
80 74 71 52 49 80 86 78 78 83 69 56 40 30 359 352 355 342 198 282 313 299 267 286 297 304 309 300 304 302 298 296 303 309 308 302 311 314 301 262 303 293 286